| time (UTC) | temp F | wind direction | speed MPH | gust MPH | rain 1hr in | rain 24hr in | rain mn in | humidity % | barometer mb |
| 20260508175030 | 69 | 45 | 5.0 | 11.0 | 0.00 | 0.00 | 0.00 | 43 | 1012.0 |
| 20260508173740 | 69 | 45 | 5.0 | 11.0 | 0.00 | 0.00 | 0.00 | 43 | 1012.0 |
| 20260508172400 | 69 | 45 | 4.0 | 11.0 | 0.00 | 0.00 | 0.00 | 40 | 1012.0 |
| 20260508171115 | 69 | 45 | 4.0 | 11.0 | 0.00 | 0.00 | 0.00 | 40 | 1012.0 |
| 20260508165640 | 69 | 45 | 5.0 | 11.0 | 0.00 | 0.00 | 0.00 | 39 | 1012.1 |
| 20260508164340 | 69 | 45 | 5.0 | 11.0 | 0.00 | 0.00 | 0.00 | 39 | 1012.1 |
| 20260508163000 | 69 | 45 | 6.0 | 11.0 | 0.00 | 0.00 | 0.00 | 39 | 1012.3 |
| 20260508161730 | 69 | 45 | 6.0 | 11.0 | 0.00 | 0.00 | 0.00 | 39 | 1012.3 |
| 20260508160330 | 68 | 90 | 5.0 | 11.0 | 0.00 | 0.00 | 0.00 | 43 | 1012.6 |
| 20260508154956 | 68 | 90 | 5.0 | 11.0 | 0.00 | 0.00 | 0.00 | 43 | 1012.6 |
| 20260508153545 | 69 | 90 | 6.0 | 11.0 | 0.00 | 0.00 | 0.00 | 47 | 1012.9 |
| 20260508152310 | 69 | 90 | 6.0 | 11.0 | 0.00 | 0.00 | 0.00 | 47 | 1012.9 |
| 20260508150920 | 69 | 90 | 6.0 | 11.0 | 0.00 | 0.00 | 0.00 | 47 | 1012.9 |
| 20260508145520 | 67 | 90 | 7.0 | 14.0 | 0.00 | 0.00 | 0.00 | 44 | 1013.2 |
| 20260508144100 | 67 | 90 | 7.0 | 14.0 | 0.00 | 0.00 | 0.00 | 44 | 1013.2 |
| 20260508142755 | 67 | 45 | 7.0 | 12.0 | 0.00 | 0.00 | 0.00 | 48 | 1013.8 |
| 20260508141438 | 67 | 45 | 7.0 | 12.0 | 0.00 | 0.00 | 0.00 | 48 | 1013.8 |
| 20260508140140 | 66 | 90 | 6.0 | 14.0 | 0.00 | 0.00 | 0.00 | 50 | 1014.2 |
| 20260508134905 | 66 | 90 | 6.0 | 14.0 | 0.00 | 0.00 | 0.00 | 50 | 1014.2 |
| 20260508133550 | 65 | 90 | 5.0 | 14.0 | 0.00 | 0.00 | 0.00 | 52 | 1014.4 |
| 20260508132350 | 65 | 90 | 5.0 | 14.0 | 0.00 | 0.00 | 0.00 | 52 | 1014.4 |
| 20260508131038 | 65 | 90 | 5.0 | 14.0 | 0.00 | 0.00 | 0.00 | 52 | 1014.4 |
| 20260508125830 | 64 | 90 | 4.0 | 11.0 | 0.00 | 0.00 | 0.00 | 58 | 1014.6 |
| 20260508124505 | 64 | 90 | 4.0 | 11.0 | 0.00 | 0.00 | 0.00 | 58 | 1014.6 |
| 20260508123105 | 62 | 90 | 4.0 | 9.0 | 0.00 | 0.00 | 0.00 | 57 | 1015.1 |
| 20260508121715 | 62 | 90 | 4.0 | 9.0 | 0.00 | 0.00 | 0.00 | 57 | 1015.1 |
| 20260508120300 | 62 | 135 | 4.0 | 10.0 | 0.00 | 0.00 | 0.00 | 60 | 1015.4 |
| 20260508114930 | 62 | 135 | 4.0 | 10.0 | 0.00 | 0.00 | 0.00 | 60 | 1015.4 |
| 20260508113555 | 60 | 135 | 4.0 | 9.0 | 0.00 | 0.00 | 0.00 | 62 | 1015.8 |
| 20260508112120 | 60 | 135 | 4.0 | 9.0 | 0.00 | 0.00 | 0.00 | 62 | 1015.8 |
| 20260508110855 | 60 | 135 | 4.0 | 9.0 | 0.00 | 0.00 | 0.00 | 62 | 1015.8 |
| 20260508105445 | 60 | 90 | 6.0 | 10.0 | 0.00 | 0.00 | 0.00 | 64 | 1015.9 |
| 20260508104131 | 60 | 90 | 6.0 | 10.0 | 0.00 | 0.00 | 0.00 | 64 | 1015.9 |
| 20260508102815 | 59 | 180 | 2.0 | 9.0 | 0.00 | 0.00 | 0.00 | 65 | 1016.2 |
| 20260508101440 | 59 | 180 | 2.0 | 9.0 | 0.00 | 0.00 | 0.00 | 65 | 1016.2 |
| 20260508100140 | 58 | 45 | 3.0 | 9.0 | 0.00 | 0.00 | 0.00 | 66 | 1016.2 |
| 20260508094755 | 58 | 45 | 3.0 | 9.0 | 0.00 | 0.00 | 0.00 | 66 | 1016.2 |
| 20260508093420 | 56 | 90 | 6.0 | 9.0 | 0.00 | 0.00 | 0.00 | 67 | 1016.3 |
| 20260508092140 | 56 | 90 | 6.0 | 9.0 | 0.00 | 0.00 | 0.00 | 67 | 1016.3 |
| 20260508090820 | 56 | 90 | 6.0 | 9.0 | 0.00 | 0.00 | 0.00 | 67 | 1016.3 |
| 20260508085431 | 55 | 0 | 2.0 | 7.0 | 0.00 | 0.00 | 0.00 | 73 | 1016.5 |
| 20260508084040 | 55 | 0 | 2.0 | 7.0 | 0.00 | 0.00 | 0.00 | 73 | 1016.5 |
| 20260508082555 | 55 | 270 | 2.0 | 7.0 | 0.00 | 0.00 | 0.00 | 74 | 1016.4 |
| 20260508081130 | 55 | 270 | 2.0 | 7.0 | 0.00 | 0.00 | 0.00 | 74 | 1016.4 |
| 20260508075905 | 53 | 225 | 2.0 | 4.0 | 0.00 | 0.00 | 0.00 | 76 | 1016.6 |
| 20260508074630 | 53 | 225 | 2.0 | 4.0 | 0.00 | 0.00 | 0.00 | 76 | 1016.6 |
| 20260508073135 | 51 | 270 | 2.0 | 4.0 | 0.00 | 0.00 | 0.00 | 78 | 1016.9 |
| 20260508071805 | 51 | 270 | 2.0 | 4.0 | 0.00 | 0.00 | 0.00 | 78 | 1016.9 |
| 20260508070520 | 50 | 315 | 2.0 | 5.0 | 0.00 | 0.00 | 0.00 | 84 | 1016.7 |
| 20260508065218 | 50 | 315 | 2.0 | 5.0 | 0.00 | 0.00 | 0.00 | 84 | 1016.7 |
| 20260508063840 | 50 | 315 | 2.0 | 5.0 | 0.00 | 0.00 | 0.00 | 84 | 1016.7 |
| 20260508062500 | 47 | 0 | 2.0 | 4.0 | 0.00 | 0.01 | 0.00 | 89 | 1016.9 |
| 20260508061140 | 47 | 0 | 2.0 | 4.0 | 0.00 | 0.01 | 0.00 | 89 | 1016.9 |
| 20260508055705 | 43 | 0 | 1.0 | 4.0 | 0.00 | 0.01 | 0.00 | 93 | 1017.0 |
| 20260508054410 | 43 | 0 | 1.0 | 4.0 | 0.00 | 0.01 | 0.00 | 93 | 1017.0 |
| 20260508053020 | 42 | 315 | 2.0 | 4.0 | 0.00 | 0.01 | 0.00 | 95 | 1016.8 |
| 20260508051600 | 42 | 315 | 2.0 | 4.0 | 0.00 | 0.01 | 0.00 | 95 | 1016.8 |
| 20260508050245 | 42 | 315 | 2.0 | 4.0 | 0.00 | 0.01 | 0.00 | 95 | 1016.8 |
| 20260508044911 | 42 | 315 | 2.0 | 4.0 | 0.00 | 0.01 | 0.00 | 95 | 1016.8 |
| 20260508043442 | 43 | 0 | 1.0 | 4.0 | 0.00 | 0.01 | 0.00 | 95 | 1016.6 |
| 20260508042105 | 43 | 0 | 1.0 | 4.0 | 0.00 | 0.01 | 0.00 | 95 | 1016.6 |
| 20260508040747 | 43 | 0 | 1.0 | 4.0 | 0.00 | 0.01 | 0.00 | 95 | 1016.6 |
| 20260508035431 | 43 | 0 | 1.0 | 4.0 | 0.00 | 0.01 | 0.00 | 95 | 1016.6 |
| 20260508034222 | 43 | 0 | 1.0 | 4.0 | 0.00 | 0.01 | 0.00 | 95 | 1016.6 |
| 20260508032903 | 43 | 0 | 2.0 | 4.0 | 0.00 | 0.01 | 0.00 | 93 | 1016.5 |
| 20260508031603 | 43 | 0 | 2.0 | 4.0 | 0.00 | 0.01 | 0.00 | 93 | 1016.5 |
| 20260508030315 | 44 | 0 | 1.0 | 5.0 | 0.00 | 0.01 | 0.00 | 92 | 1016.4 |
| 20260508024849 | 44 | 0 | 1.0 | 5.0 | 0.00 | 0.01 | 0.00 | 92 | 1016.4 |
| 20260508023425 | 45 | 0 | 0.0 | 5.0 | 0.00 | 0.01 | 0.00 | 89 | 1016.3 |
| 20260508022130 | 45 | 0 | 0.0 | 5.0 | 0.00 | 0.01 | 0.00 | 89 | 1016.3 |
| 20260508020745 | 45 | 0 | 0.0 | 5.0 | 0.00 | 0.01 | 0.00 | 89 | 1016.3 |
| 20260508015451 | 45 | 0 | 2.0 | 5.0 | 0.00 | 0.01 | 0.00 | 93 | 1016.3 |
| 20260508014201 | 45 | 0 | 2.0 | 5.0 | 0.00 | 0.01 | 0.00 | 93 | 1016.3 |
| 20260508012745 | 46 | 315 | 3.0 | 4.0 | 0.00 | 0.01 | 0.00 | 92 | 1016.3 |
| 20260508011405 | 46 | 315 | 3.0 | 4.0 | 0.00 | 0.01 | 0.00 | 92 | 1016.3 |
| 20260508010130 | 49 | 135 | 1.0 | 6.0 | 0.00 | 0.01 | 0.00 | 83 | 1016.1 |
| 20260508004909 | 49 | 135 | 1.0 | 6.0 | 0.00 | 0.01 | 0.00 | 83 | 1016.1 |
| 20260508003509 | 50 | 90 | 3.0 | 6.0 | 0.00 | 0.01 | 0.01 | 83 | 1016.3 |
| 20260508002100 | 50 | 90 | 3.0 | 6.0 | 0.00 | 0.01 | 0.01 | 83 | 1016.3 |
| 20260508000705 | 50 | 90 | 3.0 | 6.0 | 0.00 | 0.01 | 0.01 | 83 | 1016.3 |
| 20260507235430 | 50 | 0 | 5.0 | 16.0 | 0.00 | 0.01 | 0.01 | 81 | 1016.6 |
| 20260507234117 | 50 | 0 | 5.0 | 16.0 | 0.00 | 0.01 | 0.01 | 81 | 1016.6 |
| 20260507232755 | 52 | 45 | 6.0 | 16.0 | 0.00 | 0.01 | 0.01 | 78 | 1016.4 |
| 20260507231430 | 52 | 45 | 6.0 | 16.0 | 0.00 | 0.01 | 0.01 | 78 | 1016.4 |
| 20260507230100 | 53 | 45 | 7.0 | 14.0 | 0.00 | 0.01 | 0.01 | 76 | 1016.2 |
| 20260507224635 | 53 | 45 | 7.0 | 14.0 | 0.00 | 0.01 | 0.01 | 76 | 1016.2 |
| 20260507223245 | 54 | 45 | 7.0 | 11.0 | 0.00 | 0.01 | 0.01 | 74 | 1015.9 |
| 20260507221900 | 54 | 45 | 7.0 | 11.0 | 0.00 | 0.01 | 0.01 | 74 | 1015.9 |
| 20260507220503 | 54 | 45 | 5.0 | 11.0 | 0.00 | 0.01 | 0.01 | 75 | 1015.9 |
| 20260507215136 | 54 | 45 | 5.0 | 11.0 | 0.00 | 0.01 | 0.01 | 75 | 1015.9 |
| 20260507213715 | 54 | 45 | 5.0 | 11.0 | 0.00 | 0.01 | 0.01 | 75 | 1015.9 |
| 20260507212355 | 55 | 45 | 7.0 | 11.0 | 0.00 | 0.01 | 0.01 | 71 | 1015.5 |
| 20260507210909 | 55 | 45 | 7.0 | 11.0 | 0.00 | 0.01 | 0.01 | 71 | 1015.5 |
| 20260507205425 | 56 | 45 | 6.0 | 11.0 | 0.00 | 0.01 | 0.01 | 67 | 1015.3 |
| 20260507204057 | 56 | 45 | 6.0 | 11.0 | 0.00 | 0.01 | 0.01 | 67 | 1015.3 |
| 20260507202607 | 56 | 0 | 5.0 | 8.0 | 0.00 | 0.01 | 0.01 | 67 | 1015.0 |
| 20260507201305 | 56 | 0 | 5.0 | 8.0 | 0.00 | 0.01 | 0.01 | 67 | 1015.0 |
| 20260507195930 | 55 | 0 | 4.0 | 7.0 | 0.00 | 0.01 | 0.01 | 70 | 1014.8 |
| 20260507194647 | 55 | 0 | 4.0 | 7.0 | 0.00 | 0.01 | 0.01 | 70 | 1014.8 |
| 20260507193235 | 56 | 0 | 5.0 | 7.0 | 0.00 | 0.01 | 0.01 | 65 | 1014.5 |
| 20260507191857 | 56 | 0 | 5.0 | 7.0 | 0.00 | 0.01 | 0.01 | 65 | 1014.5 |
| 20260507190500 | 56 | 0 | 5.0 | 9.0 | 0.00 | 0.01 | 0.01 | 67 | 1014.2 |
| 20260507185055 | 56 | 0 | 5.0 | 9.0 | 0.00 | 0.01 | 0.01 | 67 | 1014.2 |
| 20260507183705 | 56 | 0 | 5.0 | 9.0 | 0.00 | 0.01 | 0.01 | 67 | 1014.2 |
| 20260507182425 | 58 | 0 | 6.0 | 12.0 | 0.00 | 0.01 | 0.01 | 60 | 1013.7 |
| 20260507181057 | 58 | 0 | 6.0 | 12.0 | 0.00 | 0.01 | 0.01 | 60 | 1013.7 |
| 20260507175620 | 58 | 0 | 6.0 | 12.0 | 0.00 | 0.01 | 0.01 | 60 | 1013.7 |